Other Public Products
Issued by NWS Grand Forks, ND

Home | Current Version | Previous Version | Text Only | Print | Product List | Glossary On
Versions: 1 2 3 4 5 6 7 8 9 10 11 12 13 14 15 16 17 18 19 20 21 22 23 24 25 26 27 28 29 30 31 32 33 34 35 36 37 38 39 40 41 42 43 44 45 46 47 48 49 50
000
FPUS83 KFGF 251831
OPUFGF
PRAIRIE TO PINES WEATHER ROUNDUP
NATIONAL WEATHER SERVICE EASTERN NORTH DAKOTA/GRAND FORKS ND
1200 PM CST SUN JAN 25 2015

 **SATELLITE DATA USED TO AUGMENT SKY COVER AT AUTOMATED STATIONS**
 *****  WEATHER ACROSS EASTERN NORTH DAKOTA  *****

CITY           SKY/WX    TMP DP  RH WIND       PRES   REMARKS
GRAND FORKS    PTSUNNY   22  11  62 CALM      30.05R
6HR MIN TEMP:  10; 6HR MAX TEMP:  22;

GRAND FORKS AF SUNNY     21  11  66 VRB2      30.06R
GRAND CITY NWS   N/A     23 N/A N/A VRB1        N/A
BUXTON         NOT AVBL
DEVILS LAKE    CLOUDY    21  14  73 W7        30.00R WCI  13
6HR MIN TEMP:  16; 6HR MAX TEMP:  19;

FARGO          SUNNY     25  14  63 CALM      30.04F
6HR MIN TEMP:  19; 6HR MAX TEMP:  25;

WAHPETON ARPT  CLEAR     23  18  80 NW5       30.05S WCI  17
$$

 *****  WEATHER ACROSS CENTRAL AND WESTERN NORTH DAKOTA  *****

CITY           SKY/WX    TMP DP  RH WIND       PRES   REMARKS
JAMESTOWN      CLOUDY    24  18  77 S5        30.00F WCI  18
6HR MIN TEMP:  19; 6HR MAX TEMP:  23;

BISMARCK       CLOUDY    35  32  88 W10       30.00F
6HR MIN TEMP:  35; 6HR MAX TEMP:  37; 6HR PCP: TRACE;

MINOT          CLOUDY    27  25  92 CALM      29.96F FOG
6HR MIN TEMP:  23; 6HR MAX TEMP:  27; 6HR PCP: TRACE;

MINOT AFB      CLOUDY    27  27 100 SW2       29.96F
6HR MIN TEMP:  20; 6HR MAX TEMP:  26; 6HR PCP: TRACE;

GARRISON         N/A     33  30  88 W9        29.96F
6HR MIN TEMP:  32; 6HR MAX TEMP:  34;

WILLISTON      PTSUNNY   36  30  79 SW6       29.95F
6HR MIN TEMP:  32; 6HR MAX TEMP:  36;

DICKINSON      CLOUDY    37  29  72 W8        29.95F
6HR MIN TEMP:  33; 6HR MAX TEMP:  37;

HETTINGER      MOSUNNY   38  28  67 W9        30.00F
6HR MIN TEMP:  33; 6HR MAX TEMP:  38;

$$

 *****  OTHER OBSERVATIONS NORTHEAST NORTH DAKOTA  *****

CITY           SKY/WX    TMP DP  RH WIND       PRES   REMARKS
WALHALLA         N/A     23  10  58 W5        30.03R WCI  17
LANGDON        FAIR      21  14  73 SW8       29.97R WCI  12
CAVALIER       FAIR      19  10  68 S3        30.04S
GRAFTON        NOT AVBL
CANDO          CLOUDY    19  16  86 SW8       29.99F WCI   9
FORT TOTTEN    NOT AVBL
ROLLA          CLOUDY    18  18 100 S12       29.94F WCI   5
RUGBY          MOCLDY    19  18  93 SW7       29.98F WCI  10
 ***** THE ABOVE OBSERVATIONS ARE NON NWS ARE NOT QUALITY
        CONTROLLED AND MAY MIS-REPORT RAIN FOR SNOW...
$$

 *****  OTHER OBSERVATIONS SOUTHEAST NORTH DAKOTA *****

CITY           SKY/WX    TMP DP  RH WIND       PRES   REMARKS
COOPERSTOWN    NOT AVBL
VALLEY CITY    NOT AVBL
OAKES            N/A     25  21  86 CALM      30.03S
GWINNER        PTCLDY    25  18  74 CALM      30.05S
SHEYENNE NWR     N/A     25  14  63 NW5       29.95S WCI  19
BUFFALO        NOT AVBL
WYNDMERE         N/A     21  16  79 NE3         N/A
 ***** THE ABOVE OBSERVATIONS ARE NON NWS ARE NOT QUALITY
       CONTROLLED AND MAY MIS-REPORT RAIN FOR SNOW...
$$

  *****  WEATHER ACROSS NORTHERN MINNESOTA  *****

CITY           SKY/WX    TMP DP  RH WIND       PRES   REMARKS
FLAG ISLAND    CLOUDY     9   1  72 S6        30.03S WCI  -1
WARROAD        CLOUDY    12   3  67 CALM      30.03S
ROSEAU         CLOUDY    14   5  67 CALM      30.04S
HALLOCK        SUNNY     16   9  73 S6        30.04F WCI   7
THF RVR FALLS  CLOUDY    18  10  73 CALM      30.04R
6HR MIN TEMP:   9; 6HR MAX TEMP:  16;

HALSTAD          N/A     26  12  56 N3          N/A
FOSSTON        SUNNY     27  16  63 CALM      30.01S
BAUDETTE       PTSUNNY    9   1  70 E6        30.02F WCI  -1
6HR MIN TEMP:   6; 6HR MAX TEMP:   9;

WASKISH        CLOUDY    18   9  68 CALM      30.02S
CROOKSTON      PTSUNNY   19  10  68 N3        30.06R
$$
  *****  WEATHER ACROSS CENTRAL AND WEST MINNESOTA  *****

CITY           SKY/WX    TMP DP  RH WIND       PRES   REMARKS
BEMIDJI        CLOUDY    22  14  71 SE5       30.00S WCI  16
PARK RAPIDS    CLOUDY    25  17  72 SE5       30.00R WCI  19
6HR MIN TEMP:  21; 6HR MAX TEMP:  25;

WADENA         CLOUDY    25  18  74 SE3       30.00S
DETROIT LAKES  SUNNY     28  19  69 SW3       30.01S
MOORHEAD       SUNNY     21  18  86 N5        30.04F WCI  15
FERGUS FALLS   MOSUNNY   25  19  80 W5        30.04F WCI  19
ELBOW LAKE     CLOUDY    26  22  84 NW3       30.01F
MORRIS MN      PTSUNNY   27  23  86 NW6       30.02S WCI  20
STAPLES        CLOUDY    23  16  74 CALM      30.02S
WHEATON        SUNNY     21  18  86 NW5       30.06F WCI  15
$$
  *****  WEATHER ELSEWHERE ACROSS MINNESOTA  *****

CITY           SKY/WX    TMP DP  RH WIND       PRES   REMARKS
DULUTH         LGT SNOW  20  13  74 E14       30.01F WCI   7
6HR MIN TEMP:  17; 6HR MAX TEMP:  20; 6HR PCP: TRACE;

INTRNTL FALLS  CLOUDY     8  -1  66 E5        30.05F WCI   0
6HR MIN TEMP:   2; 6HR MAX TEMP:   8;

ELY            PTSUNNY   12   7  79 CALM      30.03F
CLOQUET        FLURRIES  19  12  73 E13       30.03R WCI   7
BRAINERD       MOSUNNY   22  14  71 CALM      30.03S
6HR MIN TEMP:  20; 6HR MAX TEMP:  23;

HIBBING        CLOUDY    20  11  68 SE7       30.03F WCI  11
6HR MIN TEMP:  14; 6HR MAX TEMP:  20;

ALEXANDRIA     CLOUDY    25  18  74 E3        30.01S
6HR MIN TEMP:  24; 6HR MAX TEMP:  29;

SAINT CLOUD    PTSUNNY   24  14  65 N5        30.03S WCI  18
6HR MIN TEMP:  20; 6HR MAX TEMP:  24;

MINNEAPOLIS    CLOUDY    23  12  62 NE8       30.03F WCI  14
6HR MIN TEMP:  20; 6HR MAX TEMP:  25;

$$

  *****  WEATHER ACROSS SOUTH DAKOTA  *****

CITY           SKY/WX    TMP DP  RH WIND       PRES   REMARKS
SIOUX FALLS    CLOUDY    34  31  88 NW9       30.01S
6HR MIN TEMP:  32; 6HR MAX TEMP:  34; 6HR PCP: TRACE;

BROOKINGS      NOT AVBL
WATERTOWN      CLOUDY    29  24  82 N7        30.00R WCI  22
6HR MIN TEMP:  28; 6HR MAX TEMP:  29;

HURON          CLOUDY    31  28  89 NW8       30.05R WCI  23
6HR MIN TEMP:  30; 6HR MAX TEMP:  31;

SISSETON         N/A     24  19  81 N9        30.03F WCI  14
ABERDEEN       CLOUDY    29  23  78 NW5       30.05F WCI  24
6HR MIN TEMP:  27; 6HR MAX TEMP:  30;

MITCHELL       CLOUDY    34  31  88 NW10      30.06R
PIERRE         CLOUDY    40  31  70 NW14      30.04S
6HR MIN TEMP:  37; 6HR MAX TEMP:  40;

MOBRIDGE       CLOUDY    39  34  82 NW6       29.98F
RAPID CITY     SUNNY     45  18  34 S3        30.04S
6HR MIN TEMP:  29; 6HR MAX TEMP:  45;

$$

  *****  SOME WEATHER IN NEARBY STATES *****

CITY           SKY/WX    TMP DP  RH WIND       PRES   REMARKS
GLASGOW MT     PTSUNNY   36  29  75 SE8       29.88F
6HR MIN TEMP:  28; 6HR MAX TEMP:  36;

GREAT FALLS MT CLOUDY    52  36  54 SW20G31   29.99R
6HR MIN TEMP:  48; 6HR MAX TEMP:  52;

CHEYENNE WY    PTSUNNY   47  26  44 NW16G38   30.15R
6HR MIN TEMP:  35; 6HR MAX TEMP:  47;

SCOTTSBLUFF NE CLOUDY    43  33  68 W16       30.11F
6HR MIN TEMP:  30; 6HR MAX TEMP:  43;

OMAHA NE       CLOUDY    39  33  79 N20G26    29.96R
6HR MIN TEMP:  36; 6HR MAX TEMP:  39; 6HR PCP: TRACE;

DES MOINES IA  CLOUDY    34  29  82 N18G25    29.92R WCI  23
6HR MIN TEMP:  34; 6HR MAX TEMP:  38; 6HR PCP:  0.10;

DAVENPORT IA   LGT SNOW  29  24  82 NE20      29.82R WCI  16
6HR MIN TEMP:  28; 6HR MAX TEMP:  33; 6HR PCP:  0.04;

CHICAGO IL     LGT SNOW  29  26  89 NE20G29   29.81R FOG     WCI  16
6HR MIN TEMP:  30; 6HR MAX TEMP:  33; 6HR PCP:  0.07;

EAU CLAIRE WI  PTSUNNY   21  11  65 NE9       30.03R WCI  11
6HR MIN TEMP:  19; 6HR MAX TEMP:  24;

LA CROSSE WI   CLOUDY    30  16  56 NE9       30.00R WCI  22
6HR MIN TEMP:  27; 6HR MAX TEMP:  30;

$$

  *****  SOME NATIONAL WEATHER *****

CITY           SKY/WX    TMP DP  RH WIND       PRES   REMARKS
LA GUARDIA NY  PTSUNNY   41  13  31 NW18G31   29.78R


USA.gov is the U.S. government's official web portal to all federal, state and local government web resources and services.